Caslav, Czech Republic

11:17 PM CEST on September 27, 2016 (GMT +0200)
Caslav

Weather History for LKCV - October, 2011

Change the Weather History Date:

Saturday, October 1, 2011

  Actual Average Record
Temperature  
Mean Temperature 60 °F -  
Max Temperature 75 °F - - ()
Min Temperature 44 °F - - ()
Degree Days  
Heating Degree Days 6    
Growing Degree Days 10 (Base 50)    
Moisture  
Dew Point 50 °F    
Average Humidity 76    
Maximum Humidity 94    
Minimum Humidity 44    
Precipitation  
Precipitation 0.00 in - - ()
Sea Level Pressure  
Sea Level Pressure 30.36 in    
Wind  
Wind Speed 1 mph ()    
Max Wind Speed 5 mph    
Max Gust Speed -    
Visibility 6.2 miles    
Events      
T = Trace of Precipitation, MM = Missing Value Source: Averaged Metar Reports

Daily Weather History Graph

Daily Weather History Graph

Search for Another Location

Airport or City:

Trip Planner

Search our weather history database for the weather conditions in past years. The results will help you decide how hot, cold, wet, or windy it might be!

Date:

Astronomy

Oct. 01, 2011 Rise Set
Actual Time 6:57 AM CEST 6:37 PM CEST
Civil Twilight 6:25 AM CEST 7:10 PM CEST
Nautical Twilight 5:47 AM CEST 7:47 PM CEST
Astronomical Twilight 5:09 AM CEST 8:25 PM CEST
Moon 12:18 PM CEST (10/1) 8:44 PM CEST (10/1)
Length of Visible Light 12h 44m
Length of Day
11h 40m
Waxing Crescent, 21% of the Moon is Illuminated
Oct 1
Waxing Crescent
Oct 4
First Quarter
Oct 12
Full
Oct 20
Last Quarter
Oct 26
New

Hourly Weather History & Observations

Time (CEST) Temp. Dew Point Humidity Pressure Visibility Wind Dir Wind Speed Gust Speed Precip Events Conditions
12:00 AM 53.6 °F 50.0 °F 88% 30.39 in - SSE 1.2 mph - N/A   Clear
1:00 AM 51.8 °F 50.0 °F 94% 30.39 in - Calm Calm - N/A   Clear
2:00 AM 51.8 °F 48.2 °F 88% 30.39 in - Calm Calm - N/A   Clear
3:00 AM 50.0 °F 48.2 °F 94% 30.39 in 6.2 mi Calm Calm - N/A   Unknown
4:00 AM 46.4 °F 44.6 °F 93% 30.36 in 6.2 mi South 2.3 mph - N/A   Unknown
5:00 AM 48.2 °F 46.4 °F 93% 30.36 in 6.2 mi Calm Calm - N/A   Unknown
6:00 AM 48.2 °F 46.4 °F 93% 30.36 in - SE 2.3 mph - N/A   Clear
7:00 AM 44.6 °F 42.8 °F 93% 30.36 in - Calm Calm - N/A   Clear
8:00 AM 46.4 °F 44.6 °F 93% 30.36 in 6.2 mi Calm Calm - N/A   Unknown
9:00 AM 51.8 °F 48.2 °F 88% 30.39 in 6.2 mi Calm Calm - N/A   Unknown
10:00 AM 57.2 °F 51.8 °F 82% 30.39 in - Variable 1.2 mph - N/A   Clear
11:00 AM 60.8 °F 53.6 °F 77% 30.39 in 6.2 mi Variable 1.2 mph - N/A   Unknown
12:00 PM 66.2 °F 53.6 °F 64% 30.36 in 6.2 mi Variable 2.3 mph - N/A   Unknown
1:00 PM 69.8 °F 53.6 °F 56% 30.36 in 6.2 mi Calm Calm - N/A   Unknown
2:00 PM 71.6 °F 50.0 °F 46% 30.36 in 6.2 mi Variable 2.3 mph - N/A   Unknown
3:00 PM 73.4 °F 53.6 °F 50% 30.33 in 6.2 mi Variable 2.3 mph - N/A   Unknown
4:00 PM 75.2 °F 53.6 °F 47% 30.33 in 6.2 mi NNW 3.5 mph - N/A   Unknown
5:00 PM 75.2 °F 51.8 °F 44% 30.33 in 6.2 mi NW 4.6 mph - N/A   Unknown
6:00 PM 73.4 °F 51.8 °F 47% 30.33 in 6.2 mi NW 4.6 mph - N/A   Unknown
7:00 PM 66.2 °F 53.6 °F 64% 30.33 in - WNW 4.6 mph - N/A   Clear
8:00 PM 60.8 °F 51.8 °F 72% 30.33 in 6.2 mi SW 3.5 mph - N/A   Unknown
9:00 PM 59.0 °F 51.8 °F 77% 30.33 in - South 2.3 mph - N/A   Clear
10:00 PM 57.2 °F 51.8 °F 82% 30.33 in 6.2 mi SSE 2.3 mph - N/A   Unknown
11:00 PM 55.4 °F 51.8 °F 88% 30.33 in - SE 1.2 mph - N/A   Clear